Météo par heure à Almaly

Ce jour, 15 Mai, Samedi

Heure Température Précipitation Vent Pression Humidité
00:00 +18°C° 0 mm 2 m/s 747 mmHg 50%
01:00 +17°C° 0 mm 2 m/s 747 mmHg 51%
02:00 +17°C° 0 mm 2 m/s 747 mmHg 53%
03:00 +17°C° 0 mm 2 m/s 747 mmHg 54%
04:00 +16°C° 0 mm 2 m/s 747 mmHg 55%
05:00 +18°C° 0 mm 2 m/s 747 mmHg 54%
06:00 +20°C° 0 mm 1 m/s 747 mmHg 54%
07:00 +22°C° 0 mm 1 m/s 747 mmHg 53%
08:00 +24°C° 0 mm 2 m/s 747 mmHg 48%
09:00 +26°C° 0 mm 2 m/s 747 mmHg 43%
10:00 +28°C° 0 mm 2 m/s 748 mmHg 37%
11:00 +28°C° 0 mm 3 m/s 747 mmHg 35%
12:00 +29°C° 0 mm 3 m/s 747 mmHg 33%
13:00 +30°C° 0 mm 3 m/s 747 mmHg 31%
14:00 +30°C° 0 mm 3 m/s 747 mmHg 31%
15:00 +30°C° 0 mm 3 m/s 747 mmHg 31%
16:00 +30°C° 0 mm 2 m/s 747 mmHg 31%
17:00 +28°C° 0 mm 2 m/s 746 mmHg 38%
18:00 +27°C° 0 mm 2 m/s 746 mmHg 44%
19:00 +25°C° 0 mm 1 m/s 746 mmHg 51%
20:00 +24°C° 0 mm 1 m/s 746 mmHg 51%
21:00 +22°C° 0 mm 1 m/s 746 mmHg 52%
22:00 +20°C° 0 mm 2 m/s 746 mmHg 53%
23:00 +20°C° 0 mm 1 m/s 746 mmHg 54%

Demain, 16 Mai, Dimanche

Heure Température Précipitation Vent Pression Humidité
00:00 +20°C° 0 mm 1 m/s 746 mmHg 56%
01:00 +19°C° 0 mm 1 m/s 746 mmHg 57%
02:00 +19°C° 0 mm 1 m/s 746 mmHg 59%
03:00 +18°C° 0 mm 1 m/s 746 mmHg 61%
04:00 +18°C° 0 mm 1 m/s 746 mmHg 62%
05:00 +20°C° 0 mm 1 m/s 746 mmHg 60%
06:00 +21°C° 0 mm 1 m/s 746 mmHg 57%
07:00 +23°C° 0 mm 1 m/s 747 mmHg 55%
08:00 +25°C° 0 mm 1 m/s 746 mmHg 49%
09:00 +27°C° 0 mm 2 m/s 746 mmHg 43%
10:00 +28°C° 0 mm 2 m/s 746 mmHg 38%
11:00 +29°C° 0 mm 2 m/s 746 mmHg 35%
12:00 +30°C° 0 mm 3 m/s 746 mmHg 33%
13:00 +31°C° 0 mm 3 m/s 746 mmHg 30%
14:00 +30°C° 0 mm 3 m/s 746 mmHg 30%
15:00 +30°C° 0 mm 3 m/s 746 mmHg 29%
16:00 +30°C° 0 mm 3 m/s 745 mmHg 29%
17:00 +29°C° 0 mm 2 m/s 745 mmHg 35%
18:00 +27°C° 0 mm 2 m/s 745 mmHg 41%
19:00 +26°C° 0 mm 1 m/s 745 mmHg 47%
20:00 +24°C° 0 mm 1 m/s 745 mmHg 50%
21:00 +22°C° 0 mm 1 m/s 745 mmHg 53%
22:00 +20°C° 0 mm 2 m/s 745 mmHg 55%
23:00 +20°C° 0 mm 2 m/s 745 mmHg 55%

Après-demain, 17 Mai, Lundi

Heure Température Précipitation Vent Pression Humidité
00:00 +21°C° 0 mm 1 m/s 745 mmHg 54%
01:00 +21°C° 0 mm 1 m/s 745 mmHg 54%
02:00 +19°C° 0 mm 2 m/s 745 mmHg 55%
03:00 +19°C° 0 mm 2 m/s 745 mmHg 56%
04:00 +18°C° 0 mm 2 m/s 745 mmHg 57%
05:00 +20°C° 0 mm 2 m/s 745 mmHg 57%
06:00 +21°C° 0 mm 2 m/s 745 mmHg 56%
07:00 +23°C° 0 mm 2 m/s 746 mmHg 55%
08:00 +25°C° 0 mm 2 m/s 746 mmHg 50%
09:00 +27°C° 0 mm 3 m/s 746 mmHg 44%
10:00 +29°C° 0 mm 3 m/s 746 mmHg 39%
11:00 +29°C° 0 mm 3 m/s 745 mmHg 37%
12:00 +30°C° 0 mm 3 m/s 745 mmHg 36%
13:00 +30°C° 0 mm 4 m/s 745 mmHg 34%
14:00 +30°C° 0 mm 3 m/s 745 mmHg 35%
15:00 +30°C° 0 mm 3 m/s 745 mmHg 35%
16:00 +30°C° 0 mm 3 m/s 745 mmHg 35%
17:00 +29°C° 0 mm 2 m/s 744 mmHg 41%
18:00 +27°C° 0 mm 1 m/s 744 mmHg 46%
19:00 +26°C° 0 mm 1 m/s 744 mmHg 52%
20:00 +24°C° 0.1 mm 1 m/s 744 mmHg 55%
21:00 +23°C° 0.1 mm 1 m/s 744 mmHg 58%
22:00 +20°C° 0.1 mm 2 m/s 744 mmHg 61%
23:00 +19°C° 0.3 mm 2 m/s 744 mmHg 65%

18 Mai, Mardi

Heure Température Précipitation Vent Pression Humidité
00:00 +19°C° 0.3 mm 1 m/s 744 mmHg 68%
01:00 +19°C° 0.3 mm 1 m/s 744 mmHg 72%
02:00 +18°C° 0 mm 1 m/s 744 mmHg 72%
03:00 +18°C° 0 mm 1 m/s 744 mmHg 72%
04:00 +18°C° 0 mm 1 m/s 744 mmHg 72%
05:00 +19°C° 0 mm 1 m/s 744 mmHg 69%
06:00 +21°C° 0 mm 1 m/s 744 mmHg 66%
07:00 +22°C° 0 mm 1 m/s 744 mmHg 63%
08:00 +24°C° 0 mm 1 m/s 744 mmHg 57%
09:00 +26°C° 0 mm 1 m/s 744 mmHg 51%
10:00 +28°C° 0 mm 1 m/s 744 mmHg 45%
11:00 +29°C° 0 mm 1 m/s 744 mmHg 41%
12:00 +29°C° 0 mm 2 m/s 744 mmHg 38%
13:00 +30°C° 0 mm 2 m/s 743 mmHg 35%
14:00 +30°C° 0 mm 2 m/s 743 mmHg 34%
15:00 +30°C° 0 mm 2 m/s 743 mmHg 34%
16:00 +30°C° 0 mm 3 m/s 743 mmHg 33%
17:00 +29°C° 0 mm 2 m/s 743 mmHg 41%
18:00 +27°C° 0 mm 2 m/s 743 mmHg 48%
19:00 +25°C° 0 mm 1 m/s 743 mmHg 56%
20:00 +24°C° 0 mm 1 m/s 743 mmHg 61%
21:00 +21°C° 0 mm 2 m/s 743 mmHg 66%
22:00 +19°C° 0 mm 2 m/s 743 mmHg 71%
23:00 +18°C° 0 mm 2 m/s 743 mmHg 72%

19 Mai, Mercredi

Heure Température Précipitation Vent Pression Humidité
00:00 +19°C° 0 mm 1 m/s 742 mmHg 73%
01:00 +19°C° 0 mm 1 m/s 742 mmHg 74%
02:00 +19°C° 0 mm 1 m/s 742 mmHg 74%
03:00 +18°C° 0 mm 1 m/s 742 mmHg 74%
04:00 +18°C° 0 mm 1 m/s 742 mmHg 74%
05:00 +20°C° 0.1 mm 1 m/s 743 mmHg 71%
06:00 +21°C° 0.1 mm 1 m/s 743 mmHg 68%
07:00 +22°C° 0.1 mm 1 m/s 743 mmHg 66%
08:00 +24°C° 0 mm 1 m/s 743 mmHg 58%
09:00 +26°C° 0 mm 2 m/s 743 mmHg 51%
10:00 +28°C° 0 mm 2 m/s 743 mmHg 44%
11:00 +28°C° 0 mm 2 m/s 743 mmHg 41%
12:00 +29°C° 0 mm 2 m/s 743 mmHg 37%
13:00 +30°C° 0 mm 2 m/s 743 mmHg 34%
14:00 +30°C° 0 mm 2 m/s 743 mmHg 36%
15:00 +29°C° 0 mm 2 m/s 743 mmHg 38%
16:00 +29°C° 0 mm 3 m/s 743 mmHg 40%
17:00 +27°C° 0 mm 2 m/s 743 mmHg 46%
18:00 +26°C° 0 mm 2 m/s 743 mmHg 52%
19:00 +24°C° 0 mm 2 m/s 743 mmHg 58%
20:00 +22°C° 0 mm 3 m/s 743 mmHg 57%
21:00 +22°C° 0 mm 4 m/s 743 mmHg 55%
22:00 +21°C° 0 mm 4 m/s 744 mmHg 54%
23:00 +20°C° 0 mm 4 m/s 744 mmHg 53%

20 Mai, Jeudi

Heure Température Précipitation Vent Pression Humidité
00:00 +20°C° 0 mm 4 m/s 744 mmHg 52%
01:00 +19°C° 0 mm 4 m/s 744 mmHg 51%
02:00 +19°C° 0 mm 4 m/s 744 mmHg 52%
03:00 +18°C° 0 mm 4 m/s 744 mmHg 52%
04:00 +18°C° 0 mm 4 m/s 744 mmHg 53%
05:00 +19°C° 0 mm 4 m/s 744 mmHg 54%
06:00 +19°C° 0 mm 5 m/s 744 mmHg 55%
07:00 +20°C° 0 mm 5 m/s 745 mmHg 56%
08:00 +21°C° 0 mm 5 m/s 745 mmHg 53%
09:00 +22°C° 0 mm 5 m/s 745 mmHg 51%
10:00 +23°C° 0 mm 6 m/s 745 mmHg 48%
11:00 +24°C° 0 mm 6 m/s 745 mmHg 46%
12:00 +27°C° 0 mm 6 m/s 745 mmHg 43%
13:00 +28°C° 0 mm 6 m/s 745 mmHg 40%
14:00 +28°C° 0 mm 6 m/s 745 mmHg 42%
15:00 +28°C° 0 mm 5 m/s 745 mmHg 44%
16:00 +27°C° 0 mm 5 m/s 745 mmHg 46%
17:00 +26°C° 0 mm 5 m/s 745 mmHg 50%
18:00 +25°C° 0 mm 4 m/s 745 mmHg 54%
19:00 +23°C° 0 mm 4 m/s 745 mmHg 58%
20:00 +22°C° 0.1 mm 4 m/s 744 mmHg 59%
21:00 +21°C° 0.1 mm 4 m/s 744 mmHg 60%
22:00 +20°C° 0.1 mm 3 m/s 744 mmHg 61%
23:00 +19°C° 0.4 mm 3 m/s 744 mmHg 68%
Voir plus

Nous avons besoin de votre consentement

Meteoprog et ses fournisseurs de services peuvent stocker et accéder à des données personnelles telles que des cookies, des identifiants d'appareils ou d'autres technologies similaires sur votre appareil et traiter ces données pour personnaliser le contenu et les publicités, ainsi que pour fournir des fonctionnalités de médias sociaux et analyser le trafic.

  • Stocker et/ou accéder à des informations sur votre appareil

    Des cookies, des identifiants d'appareils ou d'autres informations peuvent être stockés ou accessibles sur votre appareil aux fins indiquées ci-dessus.

  • Annonces et contenus personnalisés, mesure des annonces et des contenus, connaissance de l'audience et développement de produits

    Les annonces et le contenu peuvent être personnalisés en fonction d'un profil. D'autres données peuvent être ajoutées pour mieux personnaliser les annonces et le contenu. Les performances des publicités et du contenu peuvent être mesurées. Il est possible d'obtenir des informations sur le public qui a vu les publicités et le contenu. Ces données peuvent être utilisées pour développer ou améliorer l'expérience de l'utilisateur, les systèmes et les logiciels.

En cliquant sur "J'accepte", vous autorisez l'utilisation de cookies, des identifiants d'appareils, des balises web ou d'autres technologies similaires. Vos paramètres peuvent être modifiés dans le navigateur de votre appareil.

Dans certains cas, des intérêts légitimes peuvent être invoqués plutôt qu'un consentement. Vous pouvez en savoir plus à ce sujet dans notre Politique de confidentialité et de cookies.